Regional Weather Roundup
Issued by NWS

Home | Current Version | Previous Version | Text Only | Print | Product List | Glossary Off
Versions: 1 2 3 4 5 6 7 8 9 10 11 12 13 14 15 16 17 18 19 20 21 22 23 24 25 26 27 28 29 30 31 32 33 34 35 36 37 38 39 40 41 42 43 44 45 46 47 48 49 50

000
ASUS43 KBIS 201710
RWRND

NORTH DAKOTA REGIONAL WEATHER ROUNDUP
NATIONAL WEATHER SERVICE BISMARCK ND
1200 PM CDT SUN MAY 20 2018

NOTE: "FAIR" INDICATES FEW OR NO CLOUDS BELOW 12,000 FEET WITH NO
SIGNIFICANT WEATHER AND/OR OBSTRUCTIONS TO VISIBILITY.


NDZ001>003-009>011-017-201800-
NORTHWEST NORTH DAKOTA

CITY           SKY/WX    TMP DP  RH WIND       PRES   REMARKS
WILLISTON      SUNNY     67  33  28 SE17G24   30.21F
MINOT          SUNNY     70  29  21 S13       30.23F
MINOT AFB      SUNNY     68  30  24 SE5       30.21F
$$

NDZ018>021-031>035-040>046-201800-
SOUTHWEST NORTH DAKOTA

CITY           SKY/WX    TMP DP  RH WIND       PRES   REMARKS
BISMARCK       SUNNY     63  34  33 SE13      30.28F
DICKINSON      SUNNY     61  32  33 SE17G28   30.23F
GARRISON         N/A     63  32  31 S13       30.25F
HETTINGER ARPT SUNNY     59  35  40 S12       30.26F
$$

NDZ004>008-012>016-024-026-027-054-201800-
NORTHEAST NORTH DAKOTA

CITY           SKY/WX    TMP DP  RH WIND       PRES   REMARKS
GRAND FORKS    FAIR      68  38  33 VRB6      30.24F
GRND FRKS AFB  FAIR      71  37  29 SW3       30.24S
DEVILS LAKE    FAIR      66  37  34 SW12      30.25S
$$

NDZ022-023-025-028>030-036>039-047>053-201800-
SOUTHEAST NORTH DAKOTA

CITY           SKY/WX    TMP DP  RH WIND       PRES   REMARKS
FARGO          FAIR      64  36  35 CALM      30.27F
JAMESTOWN      SUNNY     64  36  35 SE6       30.27F
$$




USA.gov is the U.S. government's official web portal to all federal, state and local government web resources and services.